• In Czech Republic
  • List of Countries
  • For 7 days
  • Water Temperature
  • Satellite Maps
  • Weather Map
  • Weather Widgets
  • user-avatar
    Login

    Hourly Weather Wiktoria

    Today, 12 December, Tuesday

    Time Temperature Precipitation Wind Pressure Humidity
    00:00 +15°C° 0 mm 4 mps 751 mmHg 75%
    01:00 +16°C° 0 mm 3 mps 751 mmHg 79%
    02:00 +14°C° 0 mm 3 mps 751 mmHg 81%
    03:00 +14°C° 0 mm 3 mps 751 mmHg 83%
    04:00 +14°C° 0 mm 2 mps 750 mmHg 87%
    05:00 +16°C° 0 mm 2 mps 751 mmHg 82%
    06:00 +17°C° 0 mm 2 mps 751 mmHg 78%
    07:00 +18°C° 0 mm 2 mps 751 mmHg 74%
    08:00 +21°C° 0 mm 2 mps 751 mmHg 63%
    09:00 +25°C° 0 mm 1 mps 751 mmHg 53%
    10:00 +28°C° 0 mm 1 mps 751 mmHg 40%
    11:00 +29°C° 0 mm 1 mps 750 mmHg 34%
    12:00 +31°C° 0 mm 2 mps 750 mmHg 29%
    13:00 +32°C° 0 mm 2 mps 749 mmHg 24%
    14:00 +32°C° 0 mm 2 mps 749 mmHg 22%
    15:00 +34°C° 0 mm 2 mps 749 mmHg 21%
    16:00 +34°C° 0 mm 2 mps 748 mmHg 21%
    17:00 +31°C° 0 mm 2 mps 748 mmHg 25%
    18:00 +29°C° 0 mm 1 mps 748 mmHg 28%
    19:00 +28°C° 0 mm 1 mps 748 mmHg 32%
    20:00 +26°C° 0 mm 1 mps 748 mmHg 33%
    21:00 +25°C° 0 mm 1 mps 748 mmHg 35%
    22:00 +23°C° 0 mm 1 mps 748 mmHg 36%
    23:00 +23°C° 0 mm 1 mps 748 mmHg 39%

    Tomorrow, 13 December, Wednesday

    Time Temperature Precipitation Wind Pressure Humidity
    00:00 +21°C° 0 mm 2 mps 748 mmHg 41%
    01:00 +20°C° 0 mm 2 mps 748 mmHg 44%
    02:00 +19°C° 0 mm 2 mps 747 mmHg 45%
    03:00 +19°C° 0 mm 2 mps 747 mmHg 47%
    04:00 +18°C° 0 mm 2 mps 747 mmHg 48%
    05:00 +20°C° 0 mm 3 mps 747 mmHg 48%
    06:00 +21°C° 0 mm 3 mps 747 mmHg 47%
    07:00 +22°C° 0 mm 3 mps 747 mmHg 46%
    08:00 +26°C° 0 mm 4 mps 747 mmHg 40%
    09:00 +29°C° 0 mm 4 mps 747 mmHg 34%
    10:00 +33°C° 0 mm 4 mps 746 mmHg 28%
    11:00 +34°C° 0 mm 4 mps 746 mmHg 24%
    12:00 +36°C° 0 mm 4 mps 745 mmHg 20%
    13:00 +38°C° 0 mm 4 mps 745 mmHg 16%
    14:00 +38°C° 0 mm 3 mps 744 mmHg 15%
    15:00 +38°C° 0 mm 3 mps 743 mmHg 14%
    16:00 +39°C° 0 mm 3 mps 743 mmHg 13%
    17:00 +37°C° 0 mm 3 mps 742 mmHg 17%
    18:00 +35°C° 0 mm 3 mps 742 mmHg 20%
    19:00 +33°C° 0 mm 3 mps 741 mmHg 24%
    20:00 +30°C° 0 mm 4 mps 741 mmHg 23%
    21:00 +29°C° 0 mm 4 mps 741 mmHg 23%
    22:00 +28°C° 0 mm 5 mps 741 mmHg 23%
    23:00 +28°C° 0 mm 5 mps 741 mmHg 23%

    Day after tomorrow, 14 December, Thursday

    Time Temperature Precipitation Wind Pressure Humidity
    00:00 +28°C° 0 mm 4 mps 741 mmHg 23%
    01:00 +28°C° 0 mm 4 mps 740 mmHg 24%
    02:00 +27°C° 0 mm 4 mps 740 mmHg 25%
    03:00 +26°C° 0 mm 4 mps 740 mmHg 27%
    04:00 +26°C° 0 mm 3 mps 740 mmHg 28%
    05:00 +26°C° 0 mm 3 mps 740 mmHg 31%
    06:00 +26°C° 0 mm 2 mps 741 mmHg 34%
    07:00 +27°C° 0 mm 2 mps 741 mmHg 37%
    08:00 +28°C° 0 mm 2 mps 742 mmHg 36%
    09:00 +28°C° 0 mm 2 mps 742 mmHg 36%
    10:00 +29°C° 0 mm 2 mps 742 mmHg 35%
    11:00 +31°C° 0 mm 3 mps 742 mmHg 34%
    12:00 +33°C° 0 mm 4 mps 742 mmHg 32%
    13:00 +35°C° 0 mm 5 mps 743 mmHg 30%
    14:00 +35°C° 0 mm 5 mps 743 mmHg 30%
    15:00 +35°C° 0 mm 6 mps 742 mmHg 31%
    16:00 +35°C° 0 mm 6 mps 742 mmHg 31%
    17:00 +33°C° 0 mm 6 mps 743 mmHg 39%
    18:00 +29°C° 0 mm 6 mps 743 mmHg 47%
    19:00 +27°C° 0 mm 6 mps 744 mmHg 55%
    20:00 +24°C° 0 mm 6 mps 744 mmHg 58%
    21:00 +22°C° 0 mm 6 mps 745 mmHg 61%
    22:00 +20°C° 0 mm 6 mps 745 mmHg 65%
    23:00 +19°C° 0 mm 5 mps 746 mmHg 66%

    15 December, Friday

    Time Temperature Precipitation Wind Pressure Humidity
    00:00 +17°C° 0 mm 5 mps 746 mmHg 67%
    01:00 +17°C° 0 mm 4 mps 746 mmHg 68%
    02:00 +17°C° 0 mm 4 mps 746 mmHg 69%
    03:00 +15°C° 0 mm 4 mps 746 mmHg 70%
    04:00 +16°C° 0 mm 3 mps 746 mmHg 71%
    05:00 +17°C° 0 mm 3 mps 746 mmHg 68%
    06:00 +18°C° 0 mm 3 mps 746 mmHg 65%
    07:00 +18°C° 0 mm 2 mps 746 mmHg 62%
    08:00 +21°C° 0 mm 2 mps 746 mmHg 53%
    09:00 +25°C° 0 mm 2 mps 747 mmHg 44%
    10:00 +28°C° 0 mm 2 mps 747 mmHg 35%
    11:00 +29°C° 0 mm 2 mps 746 mmHg 31%
    12:00 +30°C° 0 mm 3 mps 746 mmHg 27%
    13:00 +33°C° 0 mm 3 mps 746 mmHg 23%
    14:00 +33°C° 0 mm 4 mps 745 mmHg 24%
    15:00 +33°C° 0 mm 4 mps 745 mmHg 25%
    16:00 +34°C° 0 mm 4 mps 744 mmHg 26%
    17:00 +31°C° 0 mm 3 mps 745 mmHg 29%
    18:00 +30°C° 0 mm 3 mps 745 mmHg 32%
    19:00 +29°C° 0 mm 2 mps 745 mmHg 35%
    20:00 +27°C° 0 mm 2 mps 746 mmHg 36%
    21:00 +25°C° 0 mm 3 mps 746 mmHg 37%
    22:00 +22°C° 0 mm 3 mps 746 mmHg 39%
    23:00 +21°C° 0 mm 3 mps 746 mmHg 45%

    16 December, Saturday

    Time Temperature Precipitation Wind Pressure Humidity
    00:00 +20°C° 0 mm 3 mps 746 mmHg 52%
    01:00 +19°C° 0 mm 3 mps 746 mmHg 58%
    02:00 +18°C° 0 mm 3 mps 747 mmHg 62%
    03:00 +18°C° 0 mm 3 mps 747 mmHg 65%
    04:00 +17°C° 0 mm 2 mps 747 mmHg 69%
    05:00 +18°C° 0 mm 2 mps 747 mmHg 66%
    06:00 +19°C° 0 mm 2 mps 748 mmHg 63%
    07:00 +20°C° 0 mm 2 mps 748 mmHg 60%
    08:00 +24°C° 0 mm 2 mps 748 mmHg 49%
    09:00 +27°C° 0 mm 2 mps 748 mmHg 39%
    10:00 +30°C° 0 mm 2 mps 748 mmHg 28%
    11:00 +31°C° 0 mm 2 mps 748 mmHg 25%
    12:00 +34°C° 0 mm 2 mps 748 mmHg 22%
    13:00 +35°C° 0 mm 3 mps 747 mmHg 19%
    14:00 +35°C° 0 mm 3 mps 747 mmHg 19%
    15:00 +35°C° 0 mm 3 mps 747 mmHg 19%
    16:00 +35°C° 0 mm 3 mps 746 mmHg 19%
    17:00 +34°C° 0 mm 3 mps 747 mmHg 23%
    18:00 +31°C° 0 mm 3 mps 747 mmHg 28%
    19:00 +29°C° 0 mm 3 mps 748 mmHg 32%
    20:00 +27°C° 0 mm 3 mps 748 mmHg 39%
    21:00 +25°C° 0 mm 4 mps 748 mmHg 45%
    22:00 +22°C° 0 mm 5 mps 749 mmHg 52%
    23:00 +22°C° 0 mm 5 mps 749 mmHg 56%

    17 December, Sunday

    Time Temperature Precipitation Wind Pressure Humidity
    00:00 +21°C° 0 mm 4 mps 749 mmHg 61%
    01:00 +20°C° 0 mm 4 mps 748 mmHg 66%
    02:00 +19°C° 0 mm 4 mps 748 mmHg 68%
    03:00 +19°C° 0 mm 3 mps 748 mmHg 71%
    04:00 +18°C° 0 mm 3 mps 748 mmHg 74%
    05:00 +19°C° 0 mm 3 mps 748 mmHg 70%
    06:00 +20°C° 0 mm 2 mps 748 mmHg 66%
    07:00 +21°C° 0 mm 2 mps 749 mmHg 63%
    08:00 +25°C° 0 mm 2 mps 749 mmHg 53%
    09:00 +29°C° 0 mm 1 mps 749 mmHg 43%
    10:00 +32°C° 0 mm 1 mps 749 mmHg 34%
    11:00 +33°C° 0 mm 1 mps 748 mmHg 29%
    12:00 +35°C° 0 mm 1 mps 748 mmHg 25%
    13:00 +37°C° 0 mm 1 mps 747 mmHg 20%
    14:00 +37°C° 0 mm 1 mps 747 mmHg 19%
    15:00 +38°C° 0 mm 2 mps 746 mmHg 18%
    16:00 +38°C° 0 mm 2 mps 746 mmHg 17%
    17:00 +37°C° 0 mm 2 mps 746 mmHg 20%
    18:00 +35°C° 0 mm 2 mps 746 mmHg 24%
    19:00 +32°C° 0 mm 2 mps 747 mmHg 27%
    20:00 +31°C° 0 mm 3 mps 747 mmHg 31%
    21:00 +29°C° 0 mm 3 mps 747 mmHg 35%
    22:00 +27°C° 0 mm 3 mps 747 mmHg 39%
    23:00 +26°C° 0 mm 3 mps 747 mmHg 44%
    Show more